| time (UTC) | temp C | wind direction | speed KPH | gust KPH | rain 1hr cm | rain 24hr cm | rain mn cm | humidity % | barometer mb |
| 20260901112855 | 26 | 284 | 0.0 | 0.0 | 0.00 | 0.00 | 0.00 | 84 | 1016.3 |
| 20260901111908 | 25 | 284 | 0.0 | 0.0 | 0.00 | 0.00 | 0.00 | 85 | 1016.3 |
| 20260901110908 | 25 | 285 | 0.0 | 0.0 | 0.00 | 0.00 | 0.00 | 85 | 1016.4 |
| 20260901105930 | 25 | 285 | 0.0 | 0.0 | 0.00 | 0.00 | 0.00 | 84 | 1016.4 |
| 20260901104929 | 25 | 285 | 0.0 | 6.4 | 0.00 | 0.00 | 0.00 | 84 | 1016.3 |
| 20260901103929 | 25 | 284 | 0.0 | 0.0 | 0.00 | 0.00 | 0.00 | 83 | 1016.2 |
| 20260901102949 | 25 | 284 | 0.0 | 0.0 | 0.00 | 0.00 | 0.00 | 83 | 1016.0 |
| 20260901102001 | 25 | 250 | 0.0 | 0.0 | 0.00 | 0.00 | 0.00 | 84 | 1016.1 |
| 20260901100959 | 25 | 286 | 0.0 | 8.0 | 0.00 | 0.00 | 0.00 | 85 | 1016.1 |
| 20260901100022 | 25 | 280 | 0.0 | 6.4 | 0.00 | 0.00 | 0.00 | 85 | 1016.0 |
| 20260901095008 | 25 | 281 | 0.0 | 3.2 | 0.00 | 0.00 | 0.00 | 86 | 1016.0 |
| 20260901094021 | 25 | 281 | 0.0 | 0.0 | 0.00 | 0.00 | 0.00 | 86 | 1015.9 |
| 20260901093047 | 25 | 281 | 0.0 | 0.0 | 0.00 | 0.00 | 0.00 | 86 | 1016.0 |
| 20260901092046 | 25 | 281 | 0.0 | 0.0 | 0.00 | 0.00 | 0.00 | 86 | 1016.2 |
| 20260901091016 | 25 | 282 | 0.0 | 6.4 | 0.00 | 0.00 | 0.00 | 87 | 1016.3 |
| 20260901090027 | 25 | 282 | 0.0 | 1.6 | 0.00 | 0.00 | 0.00 | 87 | 1016.2 |
| 20260901082812 | 25 | 302 | 0.0 | 0.0 | 0.00 | 0.00 | 0.00 | 87 | 1016.2 |
| 20260901081752 | 25 | 302 | 0.0 | 0.0 | 0.00 | 0.00 | 0.00 | 87 | 1016.2 |
| 20260901080816 | 25 | 191 | 0.0 | 4.8 | 0.00 | 0.03 | 0.00 | 87 | 1016.1 |
| 20260901075746 | 25 | 209 | 0.0 | 3.2 | 0.00 | 0.03 | 0.00 | 87 | 1016.2 |
| 20260901074725 | 25 | 252 | 0.0 | 6.4 | 0.00 | 0.03 | 0.00 | 88 | 1016.2 |
| 20260901073747 | 25 | 237 | 0.0 | 1.6 | 0.00 | 0.03 | 0.00 | 88 | 1016.3 |
| 20260901072745 | 25 | 237 | 0.0 | 1.6 | 0.00 | 0.03 | 0.00 | 88 | 1016.5 |
| 20260901071755 | 25 | 237 | 0.0 | 0.0 | 0.00 | 0.03 | 0.00 | 89 | 1016.5 |
| 20260901070814 | 25 | 237 | 0.0 | 0.0 | 0.00 | 0.03 | 0.00 | 89 | 1016.6 |
| 20260901065810 | 25 | 237 | 0.0 | 0.0 | 0.00 | 0.03 | 0.00 | 89 | 1016.6 |
| 20260901064828 | 25 | 237 | 0.0 | 0.0 | 0.00 | 0.03 | 0.00 | 89 | 1016.8 |
| 20260901063830 | 25 | 215 | 0.0 | 0.0 | 0.00 | 0.03 | 0.00 | 90 | 1016.8 |
| 20260901062828 | 25 | 215 | 0.0 | 0.0 | 0.00 | 0.03 | 0.00 | 90 | 1016.9 |
| 20260901061754 | 25 | 215 | 0.0 | 1.6 | 0.00 | 0.03 | 0.00 | 91 | 1016.8 |
| 20260901060720 | 25 | 214 | 0.0 | 0.0 | 0.00 | 0.03 | 0.00 | 91 | 1016.8 |
| 20260901055704 | 25 | 214 | 0.0 | 4.8 | 0.00 | 0.03 | 0.00 | 90 | 1016.9 |
| 20260901054632 | 25 | 214 | 0.0 | 0.0 | 0.00 | 0.03 | 0.00 | 90 | 1017.1 |
| 20260901053638 | 25 | 214 | 0.0 | 0.0 | 0.00 | 0.03 | 0.00 | 89 | 1017.1 |
| 20260901052622 | 25 | 214 | 0.0 | 0.0 | 0.00 | 0.03 | 0.00 | 89 | 1017.4 |
| 20260901051614 | 25 | 214 | 0.0 | 0.0 | 0.00 | 0.03 | 0.00 | 89 | 1017.3 |
| 20260901050600 | 25 | 214 | 0.0 | 0.0 | 0.00 | 0.03 | 0.00 | 89 | 1017.4 |
| 20260901045539 | 25 | 214 | 0.0 | 0.0 | 0.00 | 0.03 | 0.00 | 88 | 1017.5 |
| 20260901044527 | 25 | 214 | 0.0 | 0.0 | 0.00 | 0.03 | 0.00 | 88 | 1017.6 |
| 20260901043547 | 25 | 214 | 0.0 | 0.0 | 0.00 | 0.03 | 0.00 | 88 | 1017.6 |
| 20260901042542 | 25 | 214 | 0.0 | 0.0 | 0.00 | 0.03 | 0.00 | 89 | 1017.8 |
| 20260901041538 | 25 | 214 | 0.0 | 0.0 | 0.00 | 0.03 | 0.00 | 89 | 1017.8 |
| 20260901040512 | 25 | 214 | 0.0 | 0.0 | 0.00 | 0.03 | 0.00 | 90 | 1017.8 |
| 20260901035449 | 25 | 214 | 0.0 | 3.2 | 0.00 | 0.03 | 0.03 | 90 | 1017.8 |
| 20260901034502 | 25 | 214 | 0.0 | 0.0 | 0.00 | 0.03 | 0.03 | 91 | 1017.8 |
| 20260901033432 | 25 | 214 | 0.0 | 0.0 | 0.00 | 0.03 | 0.03 | 90 | 1017.7 |
| 20260901032425 | 25 | 214 | 0.0 | 0.0 | 0.00 | 0.03 | 0.03 | 89 | 1017.8 |
| 20260901030301 | 25 | 214 | 0.0 | 0.0 | 0.00 | 0.03 | 0.03 | 88 | 1017.9 |
| 20260901025249 | 25 | 214 | 0.0 | 0.0 | 0.00 | 0.03 | 0.03 | 87 | 1017.8 |
| 20260901024313 | 26 | 214 | 0.0 | 0.0 | 0.00 | 0.03 | 0.03 | 86 | 1017.9 |
| 20260901023330 | 26 | 214 | 0.0 | 0.0 | 0.00 | 0.03 | 0.03 | 86 | 1017.8 |
| 20260901022310 | 26 | 214 | 0.0 | 0.0 | 0.00 | 0.03 | 0.03 | 86 | 1017.8 |
| 20260901020202 | 26 | 214 | 0.0 | 0.0 | 0.00 | 0.03 | 0.03 | 85 | 1017.7 |
| 20260901015212 | 26 | 214 | 0.0 | 4.8 | 0.00 | 0.03 | 0.03 | 85 | 1017.8 |
| 20260901014140 | 26 | 182 | 0.0 | 4.8 | 0.00 | 0.03 | 0.03 | 85 | 1017.6 |
| 20260901013145 | 26 | 177 | 0.0 | 0.0 | 0.00 | 0.03 | 0.03 | 85 | 1017.7 |
| 20260901012152 | 26 | 177 | 0.0 | 0.0 | 0.00 | 0.03 | 0.03 | 85 | 1017.7 |
| 20260901010023 | 26 | 177 | 0.0 | 0.0 | 0.00 | 0.03 | 0.03 | 83 | 1017.5 |
| 20260901002856 | 26 | 177 | 0.0 | 4.8 | 0.00 | 0.33 | 0.03 | 82 | 1017.3 |
| 20260901001851 | 27 | 0 | 0.0 | 0.0 | 0.00 | 0.86 | 0.03 | 81 | 1017.1 |
| 20260901000822 | 27 | 0 | 0.0 | 0.0 | 0.00 | 1.60 | 0.03 | 79 | 1017.2 |
| 20260831235836 | 28 | 0 | 0.0 | 0.0 | 0.00 | 2.36 | 0.03 | 78 | 1017.3 |
| 20260831234806 | 28 | 0 | 0.0 | 0.0 | 0.00 | 2.84 | 0.03 | 78 | 1017.2 |
| 20260831233751 | 28 | 0 | 0.0 | 0.0 | 0.00 | 2.84 | 0.03 | 76 | 1017.1 |
| 20260831232737 | 28 | 0 | 0.0 | 0.0 | 0.00 | 2.84 | 0.03 | 77 | 1017.2 |
| 20260831231727 | 28 | 0 | 0.0 | 0.0 | 0.00 | 2.84 | 0.03 | 75 | 1017.2 |
| 20260831230740 | 28 | 0 | 0.0 | 0.0 | 0.00 | 2.84 | 0.03 | 75 | 1017.2 |
| 20260831224556 | 28 | 0 | 0.0 | 0.0 | 0.00 | 2.84 | 0.03 | 75 | 1017.5 |
| 20260831222430 | 28 | 0 | 0.0 | 0.0 | 0.00 | 2.84 | 0.03 | 75 | 1017.8 |
| 20260831221429 | 28 | 0 | 0.0 | 0.0 | 0.00 | 2.84 | 0.03 | 73 | 1018.0 |
| 20260831220354 | 28 | 0 | 0.0 | 0.0 | 0.00 | 2.84 | 0.03 | 73 | 1017.9 |
| 20260831214155 | 28 | 0 | 0.0 | 0.0 | 0.00 | 2.84 | 0.03 | 74 | 1017.9 |
| 20260831213137 | 28 | 0 | 0.0 | 0.0 | 0.00 | 2.84 | 0.03 | 76 | 1017.9 |
| 20260831212134 | 28 | 0 | 0.0 | 0.0 | 0.00 | 2.84 | 0.03 | 76 | 1017.9 |
| 20260831211135 | 28 | 0 | 0.0 | 0.0 | 0.00 | 2.84 | 0.03 | 74 | 1017.8 |
| 20260831210125 | 28 | 0 | 0.0 | 0.0 | 0.00 | 2.84 | 0.03 | 74 | 1017.8 |
| 20260831204001 | 29 | 0 | 0.0 | 0.0 | 0.00 | 2.84 | 0.03 | 72 | 1017.8 |
| 20260831202936 | 29 | 0 | 0.0 | 0.0 | 0.00 | 2.84 | 0.03 | 72 | 1017.8 |
| 20260831201923 | 29 | 0 | 0.0 | 0.0 | 0.00 | 2.84 | 0.03 | 72 | 1017.9 |
| 20260831200936 | 29 | 0 | 0.0 | 0.0 | 0.00 | 2.84 | 0.03 | 71 | 1017.9 |
| 20260831195952 | 29 | 0 | 0.0 | 0.0 | 0.00 | 2.84 | 0.03 | 73 | 1017.9 |
| 20260831194920 | 28 | 0 | 0.0 | 0.0 | 0.00 | 2.84 | 0.03 | 69 | 1017.8 |
| 20260831191646 | 29 | 0 | 0.0 | 0.0 | 0.00 | 2.84 | 0.03 | 69 | 1018.3 |
| 20260831190656 | 29 | 0 | 0.0 | 1.6 | 0.00 | 2.84 | 0.03 | 70 | 1018.4 |
| 20260831184515 | 30 | 0 | 0.0 | 0.0 | 0.00 | 2.84 | 0.03 | 68 | 1018.4 |
| 20260831183449 | 30 | 0 | 0.0 | 0.0 | 0.00 | 2.84 | 0.03 | 70 | 1018.5 |
| 20260831180224 | 31 | 98 | 0.0 | 1.6 | 0.00 | 2.84 | 0.03 | 66 | 1018.4 |
| 20260831175220 | 31 | 94 | 0.0 | 0.0 | 0.00 | 2.84 | 0.03 | 65 | 1018.4 |
| 20260831174153 | 31 | 95 | 0.0 | 0.0 | 0.00 | 2.84 | 0.03 | 65 | 1018.6 |
| 20260831173210 | 31 | 72 | 0.0 | 6.4 | 0.00 | 2.84 | 0.03 | 66 | 1018.6 |
| 20260831172217 | 31 | 88 | 0.0 | 0.0 | 0.00 | 2.84 | 0.03 | 66 | 1018.8 |
| 20260831171217 | 30 | 94 | 0.0 | 0.0 | 0.00 | 2.84 | 0.03 | 66 | 1018.7 |
| 20260831170212 | 30 | 112 | 1.6 | 0.0 | 0.00 | 2.84 | 0.03 | 67 | 1018.7 |
| 20260831165209 | 30 | 77 | 0.0 | 6.4 | 0.00 | 2.84 | 0.03 | 70 | 1019.1 |
| 20260831164157 | 30 | 53 | 0.0 | 0.0 | 0.00 | 2.84 | 0.03 | 71 | 1019.0 |
| 20260831163137 | 29 | 5 | 0.0 | 0.0 | 0.00 | 2.84 | 0.03 | 71 | 1019.2 |
| 20260831162145 | 29 | 5 | 0.0 | 1.6 | 0.00 | 2.84 | 0.03 | 72 | 1019.4 |
| 20260831161126 | 28 | 5 | 0.0 | 0.0 | 0.00 | 2.84 | 0.03 | 76 | 1019.6 |
| 20260831160123 | 28 | 61 | 0.0 | 4.8 | 0.00 | 2.84 | 0.03 | 76 | 1019.5 |
| 20260831155122 | 29 | 115 | 0.0 | 4.8 | 0.00 | 2.84 | 0.03 | 73 | 1019.2 |
| 20260831152939 | 28 | 105 | 1.6 | 9.7 | 0.00 | 2.84 | 0.03 | 75 | 1019.1 |
| 20260831145718 | 27 | 13 | 0.0 | 0.0 | 0.00 | 2.84 | 0.03 | 83 | 1019.4 |
| 20260831144740 | 27 | 83 | 0.0 | 0.0 | 0.00 | 2.84 | 0.03 | 82 | 1019.4 |
| 20260831143751 | 27 | 103 | 0.0 | 0.0 | 0.00 | 2.84 | 0.03 | 82 | 1019.2 |
| 20260831142751 | 27 | 114 | 0.0 | 8.0 | 0.00 | 2.84 | 0.03 | 81 | 1019.1 |
| 20260831141730 | 27 | 120 | 0.0 | 6.4 | 0.00 | 2.84 | 0.03 | 84 | 1018.9 |
| 20260831140742 | 26 | 78 | 0.0 | 8.0 | 0.00 | 2.84 | 0.03 | 86 | 1019.0 |
| 20260831135737 | 25 | 100 | 0.0 | 0.0 | 0.00 | 2.84 | 0.03 | 89 | 1019.1 |
| 20260831134746 | 25 | 96 | 0.0 | 0.0 | 0.00 | 2.84 | 0.03 | 90 | 1019.2 |
| 20260831131540 | 24 | 234 | 0.0 | 0.0 | 0.00 | 2.84 | 0.03 | 92 | 1019.3 |
| 20260831130515 | 23 | 234 | 0.0 | 0.0 | 0.00 | 2.84 | 0.03 | 93 | 1019.3 |
| 20260831125504 | 23 | 234 | 0.0 | 0.0 | 0.00 | 2.84 | 0.03 | 95 | 1019.3 |
| 20260831124525 | 22 | 234 | 0.0 | 0.0 | 0.00 | 2.84 | 0.03 | 95 | 1019.2 |
| 20260831123549 | 22 | 234 | 0.0 | 0.0 | 0.00 | 2.84 | 0.03 | 95 | 1019.1 |
| 20260831122600 | 22 | 234 | 0.0 | 0.0 | 0.00 | 2.84 | 0.03 | 95 | 1019.0 |
| 20260831121615 | 22 | 234 | 0.0 | 1.6 | 0.00 | 2.84 | 0.03 | 95 | 1018.9 |
| 20260831120543 | 22 | 234 | 0.0 | 0.0 | 0.00 | 2.84 | 0.03 | 95 | 1019.0 |
| 20260831114403 | 21 | 234 | 0.0 | 0.0 | 0.00 | 2.84 | 0.03 | 95 | 1018.9 |
| 20260831113338 | 21 | 234 | 0.0 | 0.0 | 0.00 | 2.84 | 0.03 | 95 | 1018.7 |